GW6043 Weather Reports


Display with metric or nautical units.
time (UTC)temp
F
wind
direction
speed
MPH
gust
MPH
rain 1hr
in
rain 24hr
in
rain mn
in
humidity
%
barometer
mb
20260507071416 53 320 2.0 2.0 0.00 0.00 0.00 58 1013.2
20260507070913 53 312 2.0 2.0 0.00 0.00 0.00 58 1012.9
20260507070410 53 309 0.0 1.0 0.00 0.00 0.00 61 1012.9
20260507065907 53 324 0.0 0.0 0.00 0.00 0.00 61 1013.0
20260507065403 53 323 0.0 0.0 0.00 0.00 0.00 63 1013.0
20260507064900 53 312 1.0 1.0 0.00 0.00 0.00 63 1012.8
20260507064359 53 319 0.0 0.0 0.00 0.00 0.00 65 1013.1
20260507063856 53 325 0.0 0.0 0.00 0.00 0.00 68 1012.9
20260507063353 53 320 0.0 0.0 0.00 0.00 0.00 67 1012.6
20260507062850 53 315 1.0 1.0 0.00 0.00 0.00 70 1012.8
20260507062347 54 324 0.0 0.0 0.00 0.00 0.00 70 1013.0
20260507061845 54 321 0.0 1.0 0.00 0.00 0.00 71 1013.0
20260507061342 54 326 3.0 5.0 0.00 0.00 0.00 73 1012.8
20260507060841 54 332 0.0 0.0 0.00 0.00 0.00 74 1012.8
20260507060337 54 333 3.0 3.0 0.00 0.00 0.00 75 1012.8
20260507055834 54 323 0.0 0.0 0.00 0.00 0.00 75 1012.8
20260507055329 54 289 3.0 3.0 0.00 0.00 0.00 76 1012.6
20260507054826 54 310 0.0 0.0 0.00 0.00 0.00 76 1012.8
20260507054322 54 300 2.0 2.0 0.00 0.00 0.00 76 1012.8
20260507053819 54 307 6.0 7.0 0.00 0.00 0.00 77 1012.7
20260507053317 54 322 2.0 2.0 0.00 0.00 0.00 77 1012.5
20260507052816 54 297 4.0 5.0 0.00 0.00 0.00 78 1012.5
20260507052312 54 326 0.0 1.0 0.00 0.00 0.00 78 1012.6
20260507051810 55 316 1.0 1.0 0.00 0.00 0.00 77 1012.6
20260507051307 55 331 2.0 2.0 0.00 0.00 0.00 77 1012.8
20260507050804 55 337 0.0 1.0 0.00 0.00 0.00 77 1012.9
20260507050300 55 306 1.0 1.0 0.00 0.00 0.00 76 1012.7
20260507045757 55 306 2.0 2.0 0.00 0.00 0.00 77 1012.5
20260507045253 55 316 3.0 5.0 0.00 0.00 0.00 76 1012.4
20260507044751 55 314 2.0 2.0 0.00 0.00 0.00 76 1012.8
20260507044247 55 325 2.0 2.0 0.00 0.00 0.00 75 1012.5
20260507043743 55 301 1.0 2.0 0.00 0.00 0.00 75 1012.9
20260507043240 55 317 2.0 3.0 0.00 0.00 0.00 75 1013.1
20260507042736 55 326 5.0 7.0 0.00 0.00 0.00 76 1012.9
20260507042231 55 304 3.0 3.0 0.00 0.00 0.00 75 1012.7
20260507041730 56 294 4.0 5.0 0.00 0.00 0.00 74 1012.8
20260507041226 56 288 5.0 6.0 0.00 0.00 0.00 74 1012.7
20260507040723 56 315 3.0 5.0 0.00 0.00 0.00 75 1012.7
20260507040219 56 305 3.0 5.0 0.00 0.00 0.00 74 1012.5
20260507035715 56 319 1.0 1.0 0.00 0.00 0.00 75 1012.7
20260507035210 56 306 4.0 5.0 0.00 0.00 0.00 74 1012.8
20260507034708 56 307 2.0 2.0 0.00 0.00 0.00 74 1012.6
20260507034205 56 310 5.0 6.0 0.00 0.00 0.00 75 1012.6
20260507033704 56 291 3.0 3.0 0.00 0.00 0.00 76 1012.7
20260507033201 56 310 3.0 3.0 0.00 0.00 0.00 76 1012.5
20260507032658 56 319 3.0 6.0 0.00 0.00 0.00 77 1012.5
20260507032153 56 327 0.0 1.0 0.00 0.00 0.00 78 1012.7
20260507031651 56 313 3.0 3.0 0.00 0.00 0.00 77 1012.1
20260507031147 57 349 1.0 2.0 0.00 0.00 0.00 77 1011.9
20260507030644 57 333 2.0 2.0 0.00 0.00 0.00 77 1012.2
20260507030142 57 4 1.0 1.0 0.00 0.00 0.00 76 1012.2
20260507025639 57 317 3.0 5.0 0.00 0.00 0.00 76 1012.5
20260507025136 57 306 3.0 3.0 0.00 0.00 0.00 76 1012.2
20260507024634 57 289 3.0 5.0 0.00 0.00 0.00 76 1012.0
20260507024131 57 307 1.0 2.0 0.00 0.00 0.00 76 1012.2
20260507023626 57 294 1.0 2.0 0.00 0.00 0.00 77 1012.2
20260507023124 57 334 1.0 2.0 0.00 0.00 0.00 78 1012.5
20260507022620 57 325 1.0 2.0 0.00 0.00 0.00 79 1012.2
20260507022116 57 52 2.0 3.0 0.00 0.00 0.00 79 1012.2
20260507021612 57 301 1.0 1.0 0.00 0.00 0.00 79 1012.0
20260507021108 58 260 1.0 1.0 0.00 0.00 0.00 79 1011.9
20260507020607 58 328 1.0 1.0 0.00 0.00 0.00 79 1012.0
20260507015601 58 318 1.0 1.0 0.00 0.00 0.00 78 1012.2
20260507015058 59 304 2.0 2.0 0.00 0.00 0.00 78 1012.0
20260507014555 59 308 2.0 3.0 0.00 0.00 0.00 77 1012.1
20260507014050 59 331 1.0 1.0 0.00 0.00 0.00 77 1012.3
20260507013547 59 328 1.0 2.0 0.00 0.00 0.00 78 1012.1
20260507013045 59 300 1.0 2.0 0.00 0.00 0.00 77 1012.3
20260507012542 59 275 2.0 2.0 0.00 0.00 0.00 78 1012.1
20260507012038 59 315 3.0 3.0 0.00 0.00 0.00 77 1012.3
20260507011536 60 330 1.0 1.0 0.00 0.00 0.00 77 1012.4
20260507011031 60 314 3.0 3.0 0.00 0.00 0.00 77 1012.0
20260507010526 60 301 2.0 2.0 0.00 0.00 0.00 77 1012.1
20260507010023 60 330 0.0 1.0 0.00 0.00 0.00 78 1011.9
20260507005520 60 310 4.0 6.0 0.00 0.00 0.00 77 1011.7
20260507005017 60 305 2.0 2.0 0.00 0.00 0.00 77 1011.8
20260507004514 60 304 3.0 3.0 0.00 0.00 0.00 77 1011.6
20260507004011 60 333 2.0 2.0 0.00 0.00 0.00 78 1011.7
20260507003506 60 304 1.0 2.0 0.00 0.00 0.00 78 1011.5
20260507003001 61 292 1.0 1.0 0.00 0.00 0.00 79 1011.5
20260507002458 61 312 2.0 3.0 0.00 0.00 0.00 78 1011.5
20260507001955 61 319 1.0 1.0 0.00 0.00 0.00 78 1011.4
20260507001451 61 344 3.0 3.0 0.00 0.00 0.00 78 1011.1
20260507000949 61 335 1.0 2.0 0.00 0.00 0.00 79 1010.9
20260507000444 61 324 1.0 2.0 0.00 0.00 0.00 79 1011.0
20260506235940 62 302 3.0 3.0 0.00 0.00 0.00 79 1010.7
20260506235438 62 303 3.0 3.0 0.00 0.00 0.00 79 1010.2
20260506234933 62 333 1.0 2.0 0.00 0.00 0.00 79 1010.3
20260506234431 62 297 3.0 3.0 0.00 0.00 0.00 79 1010.3
20260506233928 62 294 2.0 2.0 0.00 0.00 0.00 80 1010.1
20260506233425 63 283 2.0 3.0 0.00 0.00 0.00 79 1010.0
20260506232921 63 286 3.0 3.0 0.00 0.00 0.00 80 1010.0
20260506232418 63 288 2.0 2.0 0.00 0.00 0.00 80 1009.8
20260506231913 63 312 5.0 6.0 0.00 0.00 0.00 79 1009.7
20260506231411 63 310 2.0 2.0 0.00 0.00 0.00 79 1009.8
20260506230908 64 289 3.0 3.0 0.00 0.00 0.00 79 1009.8
20260506230405 64 324 2.0 2.0 0.00 0.00 0.00 79 1009.6
20260506225901 64 300 2.0 3.0 0.00 0.00 0.00 80 1009.7
20260506225359 64 279 5.0 8.0 0.00 0.00 0.00 80 1009.5
20260506224855 64 300 3.0 5.0 0.00 0.00 0.00 80 1009.7
20260506224353 65 280 7.0 8.0 0.00 0.00 0.00 81 1009.4
20260506223849 65 311 3.0 5.0 0.00 0.00 0.00 84 1009.6
20260506223344 66 311 2.0 2.0 0.00 0.00 0.00 86 1009.3
20260506222842 66 303 0.0 0.0 0.00 0.00 0.00 86 1009.2
20260506222337 66 310 1.0 2.0 0.00 0.00 0.00 86 1009.3
20260506221835 66 279 2.0 2.0 0.00 0.00 0.00 86 1009.4
20260506221332 66 294 1.0 2.0 0.00 0.00 0.00 86 1009.3
20260506220830 66 179 4.0 6.0 0.00 0.00 0.00 85 1009.0
20260506220325 66 272 3.0 5.0 0.00 0.00 0.00 85 1009.2
20260506215822 66 256 1.0 1.0 0.00 0.00 0.00 85 1008.7
20260506215318 66 227 2.0 2.0 0.00 0.00 0.00 85 1008.8
20260506214814 66 213 2.0 2.0 0.00 0.00 0.00 85 1008.7
20260506214311 66 220 3.0 3.0 0.00 0.00 0.00 85 1008.6
20260506213810 66 98 2.0 2.0 0.00 0.00 0.00 85 1008.6
20260506213306 67 235 3.0 3.0 0.00 0.00 0.00 84 1008.6
20260506212804 67 161 3.0 3.0 0.00 0.00 0.00 84 1008.3
20260506212259 67 242 3.0 3.0 0.00 0.00 0.00 84 1008.4
20260506211754 67 178 2.0 2.0 0.00 0.00 0.00 84 1008.4
20260506211251 67 253 2.0 2.0 0.00 0.00 0.00 84 1008.5
20260506210748 67 269 2.0 2.0 0.00 0.00 0.00 84 1008.3
20260506210245 66 285 2.0 2.0 0.00 0.00 0.00 84 1008.4
20260506205742 66 272 2.0 2.0 0.00 0.00 0.00 84 1008.2
20260506205237 66 218 3.0 3.0 0.00 0.00 0.00 84 1008.3
20260506204735 67 266 1.0 1.0 0.00 0.00 0.00 84 1008.3
20260506204232 67 215 3.0 3.0 0.00 0.00 0.00 84 1008.4
20260506203730 67 222 1.0 2.0 0.00 0.00 0.00 84 1008.1
20260506203227 67 279 2.0 2.0 0.00 0.00 0.00 84 1008.2
20260506202724 66 319 1.0 1.0 0.00 0.00 0.00 84 1008.2
20260506202220 66 202 1.0 2.0 0.00 0.00 0.00 84 1008.0
20260506201717 66 148 3.0 3.0 0.00 0.00 0.00 84 1008.3
20260506201214 66 203 3.0 3.0 0.00 0.00 0.00 85 1008.1
20260506200711 66 165 3.0 6.0 0.00 0.00 0.00 85 1008.2
20260506200208 66 300 1.0 1.0 0.00 0.00 0.00 85 1008.1
20260506195659 66 185 2.0 3.0 0.00 0.00 0.00 85 1008.3
20260506195155 67 162 3.0 3.0 0.00 0.00 0.00 85 1008.2
20260506194652 67 218 4.0 6.0 0.00 0.00 0.00 85 1008.3
20260506194148 66 312 3.0 3.0 0.00 0.00 0.00 86 1008.4
20260506193646 65 212 6.0 8.0 0.00 0.00 0.00 86 1008.5
20260506193143 65 238 5.0 6.0 0.00 0.00 0.00 87 1008.6
20260506192640 64 225 4.0 5.0 0.00 0.00 0.00 87 1008.5
20260506192136 64 200 4.0 5.0 0.00 0.00 0.00 87 1008.5
20260506191633 64 238 4.0 5.0 0.00 0.00 0.00 87 1008.4
20260506191129 64 186 5.0 7.0 0.00 0.00 0.00 87 1008.5
20260506190626 64 214 6.0 8.0 0.00 0.00 0.00 87 1008.5
20260506190123 63 268 2.0 2.0 0.00 0.00 0.00 88 1008.7
20260506185620 63 290 2.0 3.0 0.00 0.00 0.00 89 1008.7
20260506185116 63 240 1.0 2.0 0.00 0.00 0.00 90 1008.7
20260506184614 63 205 4.0 6.0 0.00 0.00 0.00 91 1008.7
20260506184111 63 265 1.0 1.0 0.00 0.00 0.00 91 1008.8
20260506183608 62 283 2.0 2.0 0.00 0.00 0.00 92 1008.7
20260506183103 62 213 2.0 2.0 0.00 0.00 0.00 93 1008.8
20260506182601 62 220 3.0 3.0 0.00 0.00 0.00 93 1008.8
20260506182058 62 193 2.0 2.0 0.00 0.00 0.00 94 1009.1
20260506181556 62 237 3.0 5.0 0.00 0.00 0.00 93 1009.1
20260506181053 62 316 0.0 0.0 0.00 0.00 0.00 94 1009.0
20260506180549 62 268 1.0 2.0 0.00 0.00 0.00 94 1008.8
20260506180046 62 299 1.0 1.0 0.00 0.00 0.00 94 1009.1
20260506175542 61 249 2.0 3.0 0.00 0.00 0.00 94 1009.0
20260506175039 61 197 3.0 3.0 0.00 0.00 0.00 94 1009.2
20260506174538 62 223 4.0 6.0 0.00 0.00 0.00 93 1009.1
20260506174033 61 268 2.0 2.0 0.00 0.00 0.00 93 1009.0
20260506173531 61 191 2.0 2.0 0.00 0.00 0.00 93 1009.3
20260506173028 61 242 3.0 3.0 0.00 0.00 0.00 93 1008.8
20260506172525 61 252 5.0 6.0 0.00 0.00 0.00 92 1008.8
20260506172021 62 234 2.0 2.0 0.00 0.00 0.00 92 1009.1
20260506171519 61 234 5.0 7.0 0.00 0.00 0.00 91 1009.2
20260506171017 62 235 4.0 5.0 0.00 0.00 0.00 90 1009.2
20260506170514 62 133 6.0 8.0 0.00 0.00 0.00 90 1009.1
20260506170011 62 267 7.0 10.0 0.00 0.00 0.00 90 1009.3
20260506165510 62 214 2.0 2.0 0.00 0.00 0.00 90 1009.1
20260506165005 62 214 3.0 3.0 0.00 0.00 0.00 90 1009.1
20260506164502 61 196 4.0 5.0 0.00 0.00 0.00 90 1009.1
20260506164000 61 218 5.0 9.0 0.00 0.00 0.00 91 1009.1
20260506163455 61 283 3.0 3.0 0.00 0.00 0.00 92 1009.0
20260506162950 61 242 3.0 5.0 0.00 0.00 0.00 92 1008.8
20260506162448 61 165 3.0 3.0 0.00 0.00 0.00 93 1009.0
20260506161945 61 237 3.0 5.0 0.00 0.00 0.00 93 1009.1
20260506161443 60 203 3.0 5.0 0.00 0.00 0.00 94 1009.1
20260506160935 60 261 4.0 6.0 0.00 0.00 0.00 94 1009.2
20260506160432 60 148 2.0 3.0 0.00 0.00 0.00 94 1009.1
20260506155929 60 187 3.0 5.0 0.00 0.00 0.00 94 1009.3
20260506155427 60 166 3.0 3.0 0.00 0.00 0.00 94 1009.2
20260506153553 60 196 3.0 5.0 0.00 0.00 0.00 94 1009.2
20260506153051 60 241 2.0 3.0 0.00 0.00 0.00 94 1009.2
20260506152548 60 280 1.0 2.0 0.00 0.00 0.00 94 1009.1
20260506152046 60 339 1.0 3.0 0.00 0.00 0.00 94 1009.0
20260506151544 60 154 3.0 7.0 0.00 0.00 0.00 94 1009.2
20260506151040 60 174 2.0 2.0 0.00 0.00 0.00 94 1009.2
20260506150537 60 263 2.0 3.0 0.00 0.00 0.00 94 1009.1
20260506150034 60 319 4.0 7.0 0.00 0.00 0.00 94 1009.1
20260506145530 60 292 2.0 5.0 0.00 0.00 0.00 94 1009.1
20260506145023 60 212 2.0 2.0 0.00 0.00 0.00 94 1009.2
20260506144519 60 156 3.0 5.0 0.00 0.00 0.00 94 1009.4
20260506144017 60 197 2.0 3.0 0.00 0.00 0.00 94 1009.6
20260506143514 60 158 2.0 2.0 0.00 0.00 0.00 94 1009.7
20260506143012 60 199 2.0 2.0 0.00 0.00 0.00 93 1009.8
20260506142509 60 231 3.0 3.0 0.00 0.00 0.00 93 1009.8
20260506142008 60 181 6.0 8.0 0.00 0.00 0.00 93 1009.7
20260506141505 60 222 2.0 2.0 0.00 0.00 0.00 93 1010.0
20260506141004 60 241 5.0 7.0 0.00 0.00 0.00 93 1009.6
20260506140500 60 209 2.0 2.0 0.00 0.00 0.00 93 1009.6
20260506135957 60 208 1.0 2.0 0.00 0.00 0.00 93 1009.5
20260506135455 60 200 2.0 3.0 0.00 0.00 0.00 93 1009.4
20260506134951 60 275 2.0 2.0 0.00 0.00 0.00 92 1009.4
20260506134447 60 236 3.0 3.0 0.00 0.00 0.00 92 1009.4
20260506133944 60 289 0.0 1.0 0.00 0.00 0.00 92 1009.5
20260506133441 60 198 3.0 5.0 0.00 0.00 0.00 92 1009.3
20260506132938 60 202 2.0 2.0 0.00 0.00 0.00 91 1009.4
20260506132434 60 269 2.0 2.0 0.00 0.00 0.00 91 1009.3
20260506131932 60 232 3.0 5.0 0.00 0.00 0.00 90 1009.4
20260506131428 60 176 3.0 5.0 0.00 0.00 0.00 90 1009.6
20260506130925 61 299 1.0 1.0 0.00 0.00 0.00 90 1009.6
20260506130422 61 280 3.0 5.0 0.00 0.00 0.00 90 1009.4
20260506125920 61 226 2.0 2.0 0.00 0.00 0.00 90 1009.5
20260506125418 61 189 3.0 3.0 0.00 0.00 0.00 90 1009.5
20260506124916 61 209 1.0 1.0 0.00 0.00 0.00 90 1009.5
20260506124413 61 162 2.0 2.0 0.00 0.00 0.00 90 1009.5
20260506123911 61 167 3.0 3.0 0.00 0.00 0.00 90 1009.5
20260506123408 60 251 3.0 6.0 0.00 0.00 0.00 90 1009.6
20260506122906 60 222 3.0 6.0 0.00 0.00 0.00 90 1009.7
20260506122403 60 259 1.0 2.0 0.00 0.00 0.00 89 1009.7
20260506121901 60 246 1.0 2.0 0.00 0.00 0.00 89 1009.8
20260506121357 60 171 2.0 2.0 0.00 0.00 0.00 89 1010.1
20260506120854 61 180 3.0 5.0 0.00 0.00 0.00 88 1009.9
20260506120352 61 194 3.0 3.0 0.00 0.00 0.00 87 1010.0
20260506115849 61 188 1.0 2.0 0.00 0.00 0.00 87 1009.9
20260506115347 61 216 6.0 8.0 0.00 0.00 0.00 86 1010.0
20260506114845 62 190 3.0 5.0 0.00 0.00 0.00 86 1010.0
20260506114342 62 236 1.0 1.0 0.00 0.00 0.00 84 1009.9
20260506113841 62 245 3.0 3.0 0.00 0.00 0.00 83 1009.9
20260506113338 63 224 2.0 3.0 0.00 0.00 0.00 81 1009.6
20260506112835 63 203 2.0 2.0 0.00 0.00 0.00 80 1009.6
20260506112332 64 176 2.0 2.0 0.00 0.00 0.00 80 1009.5
20260506111829 64 225 2.0 2.0 0.00 0.00 0.00 79 1009.4
20260506111328 64 224 7.0 11.0 0.00 0.00 0.00 77 1009.2
20260506110825 64 237 2.0 3.0 0.00 0.00 0.00 76 1009.5
20260506110322 65 222 2.0 3.0 0.00 0.00 0.00 76 1009.3
20260506105818 65 150 2.0 3.0 0.00 0.00 0.00 75 1009.1
20260506105315 66 180 1.0 2.0 0.00 0.00 0.00 73 1008.8
20260506104813 66 277 0.0 1.0 0.00 0.00 0.00 71 1008.8
20260506104310 67 177 2.0 3.0 0.00 0.00 0.00 69 1008.8
20260506103808 67 176 5.0 6.0 0.00 0.00 0.00 68 1008.8
20260506103305 67 202 4.0 5.0 0.00 0.00 0.00 68 1008.7
20260506102802 67 207 4.0 6.0 0.00 0.00 0.00 67 1008.6
20260506102300 67 212 1.0 2.0 0.00 0.00 0.00 67 1008.4
20260506101757 67 165 2.0 3.0 0.00 0.00 0.00 67 1008.5
20260506101253 67 163 3.0 5.0 0.00 0.00 0.00 66 1008.2
20260506100751 67 210 5.0 8.0 0.00 0.00 0.00 66 1008.6
20260506100249 67 265 2.0 2.0 0.00 0.00 0.00 66 1008.3
20260506095747 67 169 3.0 3.0 0.00 0.00 0.00 66 1008.2
20260506095244 67 248 6.0 7.0 0.00 0.00 0.00 65 1008.3
20260506094740 67 150 5.0 8.0 0.00 0.00 0.00 65 1008.1
20260506094239 67 140 3.0 3.0 0.00 0.00 0.00 65 1008.1
20260506093737 67 104 4.0 6.0 0.00 0.00 0.00 65 1008.4
20260506093234 67 161 3.0 3.0 0.00 0.00 0.00 65 1008.2
20260506092732 68 181 8.0 13.0 0.00 0.00 0.00 64 1008.2
20260506092230 68 247 4.0 6.0 0.00 0.00 0.00 64 1008.3
20260506091727 68 144 4.0 6.0 0.00 0.00 0.00 64 1008.3
20260506091224 68 205 3.0 7.0 0.00 0.00 0.00 64 1008.5
20260506090721 68 185 4.0 6.0 0.00 0.00 0.00 63 1008.5
20260506090218 68 220 4.0 5.0 0.00 0.00 0.00 63 1008.5
20260506085715 68 172 5.0 7.0 0.00 0.00 0.00 63 1008.6
20260506085212 68 204 3.0 3.0 0.00 0.00 0.00 63 1008.5
20260506084708 68 176 3.0 5.0 0.00 0.00 0.00 62 1008.5
20260506084204 68 191 4.0 7.0 0.00 0.00 0.00 62 1008.7
20260506083702 68 240 5.0 8.0 0.00 0.00 0.00 62 1008.7
20260506083159 68 126 5.0 9.0 0.00 0.00 0.00 62 1008.4
20260506082656 68 175 5.0 6.0 0.00 0.00 0.00 62 1008.7
20260506082156 68 202 3.0 3.0 0.00 0.00 0.00 61 1008.7
20260506081655 68 185 4.0 6.0 0.00 0.00 0.00 61 1008.6
20260506081152 68 265 3.0 5.0 0.00 0.00 0.00 61 1008.4
20260506080650 68 163 3.0 5.0 0.00 0.00 0.00 61 1008.5
20260506080146 69 224 5.0 7.0 0.00 0.00 0.00 61 1008.7
20260506073130 69 222 9.0 14.0 0.00 0.00 0.00 59 1008.5
20260506072627 69 238 4.0 6.0 0.00 0.00 0.00 59 1008.6
20260506072125 69 193 5.0 9.0 0.00 0.00 0.00 59 1008.6